GFSCGP_prec_cloud_096.txt.gz
Cloud_Cover
0 0 0 0 0 1 5 5 100 69 100 99 5 25 100 100 100 100 100 100 99 100 59 1 6 10 2 1 4 0 35 0 0 0 0 75 21 95 97 80 68 0 0 0
0 0 0 0 0 0 3 20 52 58 88 99 46 78 100 100 100 100 100 100 100 100 100 15 25 16 0 0 0 0 0 0 0 0 0 44 100 97 100 100 28 31 62 0
0 0 0 0 0 0 0 5 5 35 84 100 72 81 100 100 100 100 81 98 94 98 100 65 6 0 0 0 0 0 0 0 0 0 7 98 100 100 16 8 5 52 26 0
0 0 0 0 0 0 0 0 90 99 100 100 55 81 100 100 67 4 100 100 100 51 65 77 26 0 3 0 0 0 0 0 0 14 0 51 20 9 64 6 38 4 13 0
0 0 0 0 0 0 0 65 92 69 58 96 34 6 5 100 79 96 100 100 100 70 31 32 31 1 2 0 0 0 0 0 0 5 0 0 0 87 92 98 91 95 1 2
0 0 0 0 0 4 0 29 99 98 66 5 4 22 15 53 100 42 100 100 100 78 76 100 92 54 78 0 0 0 0 0 0 0 0 0 0 74 50 63 100 55 10 0
3 5 0 0 0 1 1 4 19 41 100 4 9 98 0 11 89 100 79 78 5 64 78 100 96 25 18 100 0 0 0 0 0 0 0 0 0 6 97 100 94 66 17 1
5 10 3 0 0 2 5 5 9 5 4 4 15 83 0 52 100 100 59 71 71 43 100 100 50 88 100 86 8 0 0 0 0 0 0 0 0 0 3 97 43 0 0 82
94 15 5 0 0 89 26 5 52 33 2 6 79 14 5 1 23 1 6 14 96 98 63 100 100 100 49 81 100 14 0 0 0 0 0 0 0 0 0 0 0 0 15 63
98 48 58 0 1 44 99 28 17 42 97 100 100 0 0 0 0 0 5 28 6 78 100 95 100 100 100 100 100 100 21 0 0 0 0 0 0 0 0 0 0 0 3 90
84 91 100 0 0 4 5 5 0 80 80 100 83 16 70 41 0 0 0 61 3 98 100 100 100 100 100 100 100 100 53 93 0 0 0 0 0 0 0 0 0 0 0 13
99 63 100 5 0 0 0 16 0 21 0 100 100 72 100 92 0 0 0 44 72 70 100 99 100 100 100 100 100 100 100 100 40 88 1 0 0 0 0 0 0 0 0 0
7 58 100 72 0 0 0 0 0 3 47 100 95 81 6 100 95 0 0 0 0 0 0 84 26 26 100 100 100 100 100 100 100 100 78 1 0 0 0 0 0 0 0 0
99 90 98 97 71 14 0 0 0 26 97 100 100 62 95 79 16 0 4 19 0 0 0 2 26 5 0 11 59 100 100 97 100 100 100 100 100 0 0 0 0 0 0 0
96 100 97 90 73 44 68 0 2 0 0 100 100 94 62 36 8 22 0 28 1 0 0 0 0 0 0 0 0 3 6 74 100 44 100 100 100 100 100 85 0 0 0 0
52 82 94 88 88 4 5 51 53 1 0 99 39 95 74 100 98 100 34 44 12 0 0 0 0 0 0 0 0 0 0 1 100 71 100 100 100 100 100 100 7 2 0 0
94 100 14 96 100 100 26 85 66 1 42 74 2 79 100 100 89 100 98 35 0 0 0 0 0 0 0 0 0 0 0 0 1 90 71 85 54 100 100 100 68 5 5 4
48 93 53 96 95 75 95 71 22 72 56 69 26 90 50 69 5 12 6 0 0 0 0 0 0 0 0 0 0 0 0 0 0 0 1 3 57 98 98 100 17 5 100 86
86 99 100 100 78 77 14 94 100 100 100 40 19 100 100 73 22 0 0 0 0 0 0 0 0 0 0 0 0 0 0 0 0 0 0 0 1 13 100 16 56 90 74 100
100 80 97 100 80 100 100 44 98 100 50 99 63 2 5 2 4 0 0 0 0 0 0 0 0 0 0 0 0 0 0 0 0 0 0 19 50 51 89 100 100 100 74 100
100 100 51 23 100 100 7 97 100 100 100 97 100 69 5 1 0 7 0 0 0 0 0 0 0 0 0 0 0 0 0 0 0 0 0 0 0 0 0 12 20 50 93 100
97 100 100 97 98 99 4 3 100 74 100 98 100 88 50 36 1 0 0 0 0 0 0 0 0 0 0 0 0 0 0 0 0 0 0 0 0 0 0 0 0 0 25 43
99 49 41 94 80 19 99 6 4 100 99 100 100 100 100 100 100 2 1 0 0 0 0 0 0 0 0 0 0 0 0 0 0 0 0 0 0 0 0 0 0 0 0 43
38 72 100 97 92 60 86 35 46 4 28 50 64 100 100 100 100 48 5 4 1 0 0 0 0 0 0 0 0 1 0 0 0 0 0 0 0 0 0 0 0 0 0 0
27 80 79 95 100 100 25 5 5 18 5 3 87 99 79 100 100 72 9 5 5 5 5 3 2 9 20 25 23 3 95 80 68 12 0 0 0 0 0 0 0 0 0 0
70 12 78 6 32 45 100 64 5 5 5 5 3 6 84 100 100 100 100 39 5 5 5 5 5 10 26 28 24 25 82 100 79 57 41 5 0 0 0 0 0 0 0 0

GFSCGP_prec_cloud_102.txt.gz
Cloud_Cover
0 0 0 0 0 0 5 54 99 9 67 100 100 88 100 100 100 100 100 100 100 97 98 62 2 0 0 0 0 0 0 0 0 5 10 76 8 55 5 9 0 3 0 0
0 0 0 0 0 0 5 79 23 96 100 98 100 88 100 100 100 100 84 100 100 98 92 94 81 23 5 1 0 0 0 0 0 1 16 6 27 84 6 32 5 0 0 3
0 0 0 0 0 0 1 5 5 5 60 100 100 49 100 99 96 100 93 98 86 97 15 6 19 56 57 0 0 0 0 0 0 0 0 69 34 80 82 28 5 5 5 0
0 0 0 0 0 0 0 5 24 36 66 100 92 96 80 95 100 99 100 100 98 100 76 68 5 4 4 0 0 0 0 0 0 0 0 56 100 100 60 6 5 5 5 1
0 0 0 0 0 0 0 75 90 47 89 70 93 77 100 96 100 100 100 100 100 91 100 72 95 5 6 0 0 0 0 0 0 0 0 2 62 100 100 70 5 5 6 1
0 0 0 0 0 0 7 100 100 26 5 3 100 67 100 100 43 100 94 100 100 100 100 98 97 75 64 10 2 81 16 4 3 100 12 0 3 69 98 96 35 6 1 2
0 0 0 0 0 0 79 96 22 5 77 3 90 8 100 100 100 98 97 99 90 85 100 100 99 100 76 11 72 86 99 58 98 98 21 14 0 15 54 100 49 52 0 5
0 0 0 0 0 0 72 5 5 4 19 93 98 96 82 80 93 100 79 96 98 97 100 92 60 79 42 63 100 99 94 100 71 100 83 37 5 15 38 100 95 0 35 30
13 0 0 0 0 0 52 10 10 7 3 83 64 66 15 92 98 95 100 100 94 70 100 100 100 100 100 99 98 100 90 100 93 100 100 100 100 100 100 100 66 2 8 99
95 22 0 0 0 0 0 4 69 27 50 61 12 40 100 100 100 100 100 98 99 90 100 100 99 96 100 72 100 100 100 100 100 100 100 100 100 100 100 100 100 100 100 100
11 78 5 5 0 0 0 0 18 5 5 85 5 33 83 100 100 100 100 100 100 97 100 100 100 100 73 94 100 100 100 100 100 100 100 100 100 100 100 100 100 100 100 100
6 100 31 8 4 0 0 0 57 99 28 13 100 97 100 99 100 100 100 100 100 100 100 100 100 100 100 100 100 100 100 100 100 95 100 100 100 100 100 100 100 100 100 100
100 97 100 93 11 1 0 0 37 94 60 6 59 90 100 60 100 100 100 73 100 97 94 100 100 74 99 100 100 100 100 100 100 100 100 100 100 100 100 100 100 100 100 100
100 100 100 100 52 3 4 0 4 100 100 5 32 100 100 99 78 100 100 100 96 84 61 100 100 100 100 100 100 100 100 100 100 100 100 100 100 100 100 100 100 100 100 100
98 100 100 100 100 51 0 0 0 0 71 5 42 27 100 100 94 51 100 100 100 100 87 80 96 100 100 100 100 100 100 100 100 100 100 100 100 100 100 100 100 100 100 100
100 100 100 100 100 100 17 5 4 55 100 4 26 100 100 68 39 61 100 100 100 100 99 100 100 100 100 100 100 100 100 100 100 100 100 100 100 100 100 100 100 100 100 100
100 100 100 100 100 100 99 99 45 3 5 0 12 70 92 81 11 11 22 100 90 75 97 55 100 100 100 99 100 100 100 100 100 100 100 100 100 100 100 100 100 100 100 100
79 100 100 100 100 100 100 79 100 34 2 0 0 82 70 32 98 100 49 71 100 100 100 60 28 100 98 80 12 17 100 100 100 100 100 100 100 100 100 100 100 100 100 100
97 60 75 100 100 100 100 100 93 60 6 3 0 97 100 57 38 100 100 86 100 100 100 100 100 30 100 100 23 0 100 100 100 100 100 100 100 100 100 100 100 100 100 100
100 100 68 11 100 100 100 100 99 90 12 19 7 4 0 3 71 25 98 100 100 99 89 100 74 36 5 0 3 0 100 100 100 100 100 100 100 100 100 100 100 100 100 100
100 90 97 100 100 100 100 100 86 100 100 6 5 5 5 7 2 41 100 100 100 100 100 92 95 94 5 4 3 0 25 100 100 100 100 100 100 100 100 100 100 100 100 100
92 59 35 74 78 87 84 100 100 92 100 100 41 5 5 5 0 0 3 90 100 100 94 93 79 52 8 5 1 0 0 0 32 100 97 49 38 100 100 35 22 55 100 100
88 100 100 79 79 14 81 97 56 5 85 16 92 99 100 65 5 5 5 5 5 7 64 99 89 38 12 4 5 3 0 0 0 0 0 0 0 56 100 0 0 0 0 2
5 38 85 85 100 52 67 92 100 20 5 90 25 92 86 26 40 5 77 5 13 1 0 0 0 35 1 62 97 0 0 0 0 0 0 0 0 0 0 0 0 0 0 0
3 5 5 11 82 70 5 13 100 96 54 96 80 67 78 6 30 5 2 1 0 1 3 0 0 0 0 19 92 4 0 0 0 0 0 0 0 0 0 0 0 0 0 0
5 2 0 5 5 15 65 33 46 100 100 100 91 62 20 5 1 5 15 5 5 4 4 5 5 4 1 0 0 2 3 0 0 0 0 0 0 0 0 0 0 0 0 0

GFSCGP_prec_cloud_105.txt.gz
Cloud_Cover
0 0 0 0 3 5 5 5 5 89 66 98 100 100 100 100 100 100 82 100 30 7 8 25 7 0 13 5 0 0 0 0 2 12 7 35 5 4 2 0 6 5 28 0
0 0 0 0 0 5 98 50 64 58 53 100 100 100 100 99 100 100 100 90 78 5 7 47 93 43 5 3 0 0 0 0 0 82 18 98 46 52 5 5 4 0 15 92
0 0 0 0 0 5 61 13 92 14 14 100 100 100 100 100 100 100 100 57 73 17 19 78 11 68 5 1 0 0 0 0 0 0 13 12 98 29 22 5 32 0 1 8
0 0 0 0 0 3 5 44 100 73 18 100 97 100 100 100 100 100 100 90 78 66 5 5 3 5 5 0 0 0 0 23 5 54 5 10 90 9 5 5 5 5 5 6
0 0 0 0 0 0 6 100 100 98 99 34 100 100 100 100 100 100 100 100 98 92 31 5 5 5 12 32 0 2 5 64 100 5 5 4 5 80 5 29 16 22 50 74
0 0 0 0 0 0 89 72 80 60 29 100 100 100 100 87 100 100 100 86 26 100 50 78 99 71 75 62 1 4 6 49 66 98 16 4 54 21 26 98 22 3 82 77
0 0 0 0 0 0 13 22 28 5 4 100 100 100 100 70 17 96 100 100 98 99 92 100 97 100 80 100 17 21 51 5 6 100 19 3 35 74 11 40 99 66 19 56
0 0 0 0 0 0 0 25 5 5 5 2 10 100 97 35 64 100 100 100 81 100 100 100 100 65 99 98 96 77 48 89 6 100 32 66 80 100 100 100 100 100 100 94
0 0 0 0 0 0 0 0 4 5 5 30 20 76 81 100 100 91 75 100 99 100 94 100 100 100 100 48 97 35 38 56 71 100 100 100 18 11 100 100 100 100 100 100
1 0 0 0 0 0 0 0 0 5 5 5 3 0 20 58 77 100 100 100 100 100 100 96 100 100 92 97 94 79 98 87 63 100 100 100 100 100 100 100 100 100 100 100
9 3 0 0 0 0 0 0 0 0 0 5 2 6 99 100 97 97 100 100 100 100 100 100 100 100 100 100 81 100 100 100 82 62 100 100 100 100 100 100 100 100 100 100
93 14 4 0 0 0 0 0 5 0 2 0 5 4 100 100 100 100 100 100 100 100 100 100 100 100 100 100 100 100 100 100 100 99 66 100 100 100 78 100 100 100 91 100
100 100 81 15 1 0 0 0 2 5 1 0 4 7 100 99 100 100 100 100 100 100 100 100 100 100 100 100 100 100 100 99 100 100 100 93 88 88 99 55 96 100 100 74
100 100 100 100 52 2 0 0 0 3 34 5 16 82 100 100 100 100 100 100 100 100 100 100 100 100 100 100 100 100 53 100 100 100 97 88 100 100 100 100 100 100 100 100
100 100 100 100 100 100 53 4 0 0 11 17 73 74 100 94 100 99 100 100 100 100 100 100 100 100 100 100 100 100 100 100 100 100 100 100 100 100 100 94 92 100 100 100
100 100 100 100 100 93 100 98 5 5 52 5 62 100 74 92 63 32 100 100 100 100 100 100 100 100 100 100 100 100 100 100 100 100 100 100 100 100 100 100 100 100 88 36
100 100 100 100 91 100 100 100 74 5 0 5 78 71 100 96 16 7 100 98 100 100 100 100 100 100 100 100 100 100 100 100 100 100 100 100 100 100 100 100 95 100 100 65
100 100 100 100 100 100 100 100 100 50 3 0 1 94 75 54 96 100 83 71 21 99 100 100 100 100 100 100 100 100 100 100 100 100 100 100 100 100 100 100 100 100 100 100
100 100 100 100 100 100 99 100 100 100 78 12 14 81 100 70 54 100 57 89 100 92 100 100 100 100 96 100 100 100 100 100 100 100 100 100 100 100 100 100 100 100 100 100
100 100 93 87 90 96 100 100 100 100 94 100 3 1 0 93 43 37 100 66 31 100 100 100 100 96 89 98 13 100 66 100 100 100 100 100 100 100 100 100 100 100 100 100
98 100 83 40 81 7 13 98 100 100 100 80 97 10 4 0 0 4 46 83 28 73 100 56 84 100 45 98 72 98 85 100 100 100 100 100 100 100 100 100 100 100 100 100
5 98 100 96 72 34 100 100 99 100 100 97 94 98 100 43 3 5 8 89 96 10 25 97 16 9 100 81 69 61 58 100 100 100 100 97 84 100 100 100 100 100 100 100
10 8 86 100 100 84 92 100 100 100 100 86 84 99 100 98 7 36 60 54 99 100 99 87 66 24 9 98 77 98 86 42 100 100 54 65 56 87 100 100 100 100 100 100
5 5 50 28 98 100 100 96 100 100 100 26 95 100 100 100 100 100 11 95 97 16 14 27 84 100 100 99 100 70 12 86 6 98 100 68 6 97 100 100 100 100 100 100
1 5 5 5 5 47 95 100 100 100 100 43 15 93 100 100 100 100 100 75 87 77 85 5 2 0 0 0 51 71 86 29 40 5 21 15 5 69 62 58 100 100 100 100
3 3 0 0 0 0 5 5 20 9 56 100 99 100 100 100 100 100 94 100 91 30 11 5 4 0 0 0 0 0 0 37 100 99 60 33 3 0 1 1 71 100 100 100

GFSCGP_prec_cloud_108.txt.gz
Cloud_Cover
0 0 0 5 5 5 5 5 58 100 100 100 100 100 100 100 100 96 83 5 17 12 8 35 49 37 5 3 0 0 0 5 5 2 5 1 5 5 2 2 23 18 1 0
0 0 0 5 5 5 5 5 44 100 85 99 100 100 100 100 100 98 100 91 24 92 44 10 5 0 0 4 0 0 0 4 3 3 5 4 4 6 9 0 5 9 5 2
0 0 0 2 5 5 5 5 15 88 74 100 100 100 100 100 100 99 46 64 94 98 14 12 1 0 0 0 0 0 0 34 12 1 12 14 7 10 28 1 5 22 17 5
0 0 0 0 4 5 5 55 5 8 48 100 100 100 100 100 100 99 99 79 84 32 5 5 5 4 0 2 1 0 6 36 33 0 0 8 1 2 5 4 4 5 11 4
0 0 0 0 0 0 5 72 5 35 6 78 100 100 100 100 100 100 98 94 51 97 96 28 8 37 44 4 0 0 0 38 5 32 4 1 22 5 5 4 0 5 15 37
0 0 0 0 0 0 7 77 94 5 98 5 11 100 100 100 100 100 100 100 100 100 100 100 100 81 94 95 6 0 3 4 5 70 4 4 5 86 92 15 81 5 5 10
0 0 0 0 0 0 39 58 87 5 5 5 5 98 100 79 73 100 100 100 100 99 100 97 99 100 100 11 59 28 3 19 4 44 80 97 92 100 99 100 100 100 58 9
0 0 0 0 0 0 4 5 10 5 2 0 1 100 11 83 100 100 100 100 100 57 100 97 96 100 83 86 99 76 5 5 26 99 82 5 5 44 98 6 100 100 100 99
0 0 0 0 0 0 0 5 20 5 0 5 3 0 94 88 100 100 100 100 93 6 100 100 100 100 92 86 100 13 5 5 36 79 100 100 100 100 100 100 100 100 100 95
3 0 0 0 0 0 0 0 4 4 1 3 3 0 14 94 100 100 100 100 98 61 99 84 100 100 100 100 100 75 51 57 6 97 71 100 100 82 100 100 100 100 100 100
43 3 0 0 0 0 0 0 0 0 0 0 0 0 11 71 100 100 100 100 100 99 100 100 100 97 100 100 100 100 56 10 74 5 100 100 70 100 93 100 100 100 94 81
100 52 5 0 0 0 0 0 0 0 0 0 0 4 98 97 100 100 100 100 100 100 100 100 100 100 99 100 100 100 96 67 99 46 50 100 100 100 100 98 97 100 100 8
100 100 94 4 0 0 0 0 0 0 0 0 0 26 99 100 100 100 100 100 100 100 100 100 100 100 100 100 100 97 100 100 100 100 94 64 100 100 100 99 100 100 94 100
100 100 100 68 5 2 0 0 0 0 1 2 0 96 100 81 100 100 100 100 100 100 100 100 100 100 100 97 100 100 100 100 98 100 100 88 75 55 100 90 98 100 100 63
100 100 100 100 9 17 0 0 0 0 0 5 7 23 99 93 100 100 100 100 100 100 100 100 100 100 100 100 100 100 100 100 100 98 100 79 100 100 100 100 100 100 68 98
100 100 100 100 88 100 68 3 0 0 0 0 76 40 100 100 100 100 100 100 100 100 100 100 100 100 100 100 100 97 100 100 100 100 100 100 40 100 100 100 99 100 100 100
100 100 100 100 100 100 100 99 6 3 0 0 1 58 100 100 100 100 100 92 91 90 100 100 100 100 100 100 100 100 100 100 100 100 100 100 100 100 96 98 94 99 100 100
100 100 100 98 100 100 100 91 98 44 14 0 14 15 100 100 100 40 35 28 99 98 85 100 100 100 100 100 100 100 100 100 100 100 100 100 100 100 100 100 100 98 99 100
100 100 100 100 100 55 100 100 82 97 19 34 81 95 100 100 78 35 70 82 23 7 43 100 100 100 100 100 100 100 100 100 100 100 100 100 100 100 98 100 100 100 100 69
100 100 100 97 100 54 100 100 100 90 86 77 95 76 96 86 46 42 100 100 53 0 25 97 100 100 79 98 96 99 100 100 100 100 100 100 100 100 100 100 100 100 100 100
56 98 95 19 47 94 38 43 74 100 38 6 99 7 39 22 83 38 70 99 100 38 5 3 62 96 100 99 96 26 68 98 100 100 99 100 100 100 100 100 100 100 100 97
5 26 82 98 45 67 66 100 100 100 62 71 59 54 100 100 100 100 100 86 43 91 14 27 19 100 24 99 88 61 5 25 98 100 97 100 100 100 100 100 100 100 100 99
71 9 4 26 95 17 47 68 17 100 100 100 100 95 97 100 100 100 100 90 83 96 40 5 5 26 100 93 57 9 64 20 86 100 100 99 100 100 100 100 100 100 100 100
4 5 5 4 4 41 42 62 15 5 83 100 86 96 98 100 100 100 100 100 100 83 92 6 5 16 5 100 100 95 43 96 16 26 60 47 93 100 100 100 100 100 100 100
0 0 0 1 0 1 1 5 45 89 58 100 100 98 100 100 100 100 100 100 57 5 5 36 84 74 21 100 100 94 98 48 95 90 16 5 6 56 100 100 100 100 100 100
0 0 0 0 0 0 1 5 5 11 91 100 100 100 100 100 100 100 100 100 100 98 26 81 16 32 88 78 6 5 67 100 100 100 94 64 38 66 100 99 100 95 100 100

GFSCGP_prec_cloud_114.txt.gz
Cloud_Cover
0 0 0 0 2 14 5 73 100 100 100 100 100 100 100 100 100 100 100 66 73 57 50 4 22 3 8 14 36 45 27 2 2 0 2 6 42 35 41 12 0 0 0 0
0 0 0 0 0 5 5 11 100 100 100 100 100 100 100 92 100 100 100 95 96 69 97 95 100 7 45 20 18 23 30 4 0 0 58 81 76 63 83 44 0 14 0 0
0 0 0 0 0 19 68 100 43 99 95 100 80 100 98 98 100 100 100 100 76 100 78 28 67 31 47 8 25 11 16 21 7 66 57 2 4 0 3 2 0 1 0 0
0 0 0 0 0 4 94 6 9 61 57 100 100 100 99 95 99 97 100 99 76 86 38 64 5 2 2 5 19 10 5 61 9 99 53 92 69 4 52 6 38 31 7 1
0 0 0 0 0 4 94 19 62 6 100 100 100 99 100 100 100 100 100 100 94 41 27 28 14 3 20 4 5 0 8 74 5 7 100 100 100 97 39 62 1 39 4 7
0 0 0 0 0 76 6 54 12 5 99 100 100 100 100 98 100 99 100 100 82 27 12 24 24 30 52 16 5 3 5 47 100 59 9 70 35 8 20 8 5 13 4 2
0 0 0 0 0 9 80 91 79 59 39 91 100 100 100 96 96 100 100 100 100 100 32 5 12 18 34 13 89 4 16 22 92 100 5 6 6 65 5 59 5 97 94 6
3 0 0 0 0 0 7 100 100 92 67 99 90 100 100 100 100 100 100 100 100 100 87 22 19 46 5 5 5 5 6 28 99 100 92 74 100 96 5 14 67 66 16 6
5 5 1 0 0 0 0 40 94 67 94 100 56 100 96 100 100 100 81 96 100 100 100 58 30 62 83 16 5 6 5 5 8 49 99 100 100 100 93 84 98 100 24 68
18 5 3 0 0 0 0 1 64 30 85 67 95 95 100 100 100 100 100 98 100 100 100 97 62 6 5 44 90 88 7 5 13 4 58 68 100 100 80 90 100 100 89 69
5 4 7 4 0 0 0 0 1 21 4 97 68 46 100 100 100 100 100 100 100 100 100 100 72 76 28 27 78 28 26 76 44 35 1 9 10 68 98 95 53 100 96 97
96 94 44 4 13 0 0 0 0 0 30 3 84 100 34 100 100 100 100 100 100 100 100 100 72 82 100 85 7 100 91 94 67 81 5 4 5 2 4 5 5 100 59 98
77 100 99 92 4 4 0 0 0 1 5 55 4 44 3 5 12 100 100 100 100 100 100 100 100 98 100 68 100 100 100 100 47 42 6 5 9 3 6 14 96 58 100 69
100 78 95 98 55 48 4 0 0 5 42 96 95 98 55 0 54 100 100 100 100 100 100 100 99 100 100 100 100 100 100 100 100 98 41 28 20 20 78 97 95 92 86 6
100 100 98 90 82 4 5 2 0 0 5 100 100 69 62 0 4 96 100 100 100 100 100 100 100 100 100 100 100 100 98 98 98 99 92 26 43 84 54 46 82 63 100 100
100 100 100 42 49 81 100 91 5 1 2 5 77 100 0 0 90 100 68 100 100 100 100 100 100 100 100 100 100 98 100 100 100 100 100 50 94 100 93 100 100 56 31 80
100 100 100 100 77 92 99 100 84 2 0 6 49 10 0 30 100 97 100 100 100 100 100 100 100 100 100 100 100 100 100 100 100 100 100 100 100 48 79 76 86 53 38 84
100 100 100 100 90 100 100 100 22 33 1 0 0 0 4 86 100 100 98 100 100 100 100 100 100 100 100 100 100 100 100 100 100 100 100 90 100 49 100 100 100 100 89 99
100 100 100 100 94 96 100 99 99 50 8 1 0 0 40 65 59 97 100 100 93 95 100 100 100 100 100 100 100 100 100 100 100 100 100 92 79 88 100 100 100 99 100 98
79 75 100 100 100 97 37 84 99 100 80 5 5 4 32 98 52 63 100 92 79 100 69 93 100 100 100 100 100 100 100 100 100 100 98 73 72 99 62 100 100 98 100 100
100 100 100 100 100 33 68 100 99 100 100 86 67 41 19 98 59 0 47 72 94 60 23 95 100 100 100 100 100 100 100 100 100 100 100 100 100 100 98 48 88 100 100 100
40 72 100 100 96 82 57 100 100 30 75 100 100 16 45 98 92 66 100 100 59 53 100 100 100 100 100 100 100 100 100 100 100 100 100 100 100 99 98 87 63 59 31 100
5 6 60 31 37 80 100 100 93 25 69 40 62 82 88 100 99 100 100 100 100 75 55 98 100 100 100 100 100 100 100 100 100 100 100 100 100 100 100 97 94 6 5 7
5 5 5 8 52 24 100 98 59 12 14 96 47 31 67 97 100 100 91 70 56 42 12 100 62 87 79 92 82 5 63 87 100 100 100 100 100 100 100 100 100 100 100 58
3 1 2 4 1 2 16 44 77 7 5 5 30 88 56 90 100 83 86 47 51 98 100 99 39 43 78 100 100 81 96 96 49 100 56 89 100 100 100 93 100 98 48 34
0 3 0 6 4 1 2 2 17 46 62 60 21 10 78 100 100 100 95 97 96 99 100 100 76 98 100 94 100 93 10 5 2 0 32 93 22 79 99 100 100 100 100 61

GFSCGP_prec_cloud_117.txt.gz
Cloud_Cover
0 0 0 0 4 99 13 100 25 100 100 100 100 100 100 100 100 74 82 58 96 87 96 11 48 24 21 21 65 100 99 21 95 0 80 93 83 100 100 84 6 7 6 0
0 0 0 0 59 70 5 100 64 100 100 100 100 100 100 99 100 100 96 78 98 100 100 48 97 70 20 4 51 70 29 11 5 32 100 100 100 87 100 100 0 12 16 4
0 0 0 0 7 26 5 100 85 100 100 100 100 100 100 95 100 99 98 88 75 95 41 27 100 97 12 74 6 21 6 67 28 100 40 85 100 99 95 84 77 100 67 9
0 0 0 0 4 18 79 31 100 100 100 100 100 100 100 96 100 100 100 78 100 86 51 43 97 100 86 19 21 4 5 13 71 100 73 91 44 16 100 100 100 93 100 100
0 0 0 0 0 2 100 84 100 100 92 100 100 100 100 86 100 100 93 100 98 32 73 99 70 100 100 54 35 8 5 5 38 100 59 5 94 10 6 100 80 5 69 100
0 0 0 0 0 46 95 3 100 100 100 100 98 100 100 92 100 100 85 100 80 42 78 100 56 100 81 75 64 34 4 12 98 63 84 28 61 95 79 24 19 8 29 82
0 0 0 0 0 85 7 69 98 80 100 99 100 100 100 56 98 73 100 100 48 98 99 100 11 100 14 90 87 28 6 6 95 33 67 46 95 84 31 20 54 34 82 92
2 0 0 0 3 12 1 85 83 39 85 100 99 100 100 55 60 74 94 100 97 86 100 71 100 70 80 67 43 23 5 7 37 100 54 73 100 100 100 68 99 43 71 48
78 9 2 0 0 5 5 85 59 100 47 100 76 88 7 96 94 52 100 98 100 99 100 77 58 100 3 48 80 8 3 9 2 55 94 62 47 88 76 99 100 62 69 100
100 96 47 0 0 0 8 21 84 97 5 83 72 100 100 100 100 99 100 67 65 89 93 100 92 32 21 4 79 100 10 5 5 3 2 19 5 8 82 63 100 100 96 78
100 52 100 9 0 0 0 0 21 100 71 100 60 80 100 100 100 99 100 96 91 98 100 100 96 80 90 56 91 26 58 5 2 4 0 3 8 8 3 12 82 97 100 100
6 100 50 51 3 0 0 0 7 29 17 72 100 9 100 100 100 100 100 95 97 100 100 100 99 57 33 8 5 97 100 80 4 3 3 0 1 1 17 0 74 60 86 100
90 6 86 100 56 4 0 1 0 4 37 98 74 95 26 92 54 67 100 100 97 96 100 100 98 62 95 6 14 8 17 74 93 100 80 43 13 13 0 2 36 96 51 98
5 82 100 100 90 52 0 2 1 5 42 36 78 90 99 66 9 45 100 100 100 98 100 100 99 91 95 86 67 6 98 75 81 82 99 87 15 17 3 0 5 8 21 99
5 26 100 21 93 60 88 5 4 5 13 95 99 100 63 0 4 73 100 100 100 100 95 100 100 100 100 100 97 53 23 100 100 100 100 100 100 24 39 20 5 62 10 5
100 100 41 100 98 80 100 46 5 5 5 97 100 14 96 100 1 30 100 100 100 100 100 79 96 100 100 100 100 100 100 100 100 100 100 100 100 18 57 20 20 57 60 81
26 84 96 100 100 92 89 93 100 100 97 76 100 14 68 100 100 92 100 100 100 100 100 100 100 70 100 100 100 100 100 100 100 100 100 100 77 57 58 81 29 70 18 62
73 5 56 100 96 74 86 68 8 90 50 2 60 31 97 100 72 75 100 100 100 100 100 100 100 100 98 100 100 100 100 100 100 100 100 100 100 100 82 99 95 100 66 10
22 84 92 100 94 64 55 25 98 5 23 2 4 11 81 69 32 96 81 100 97 99 100 100 100 100 100 100 100 100 100 100 100 100 100 100 100 100 100 100 100 100 100 100
88 83 100 100 100 100 50 13 50 6 6 100 100 6 0 4 0 41 100 100 100 99 98 100 100 100 100 100 100 100 100 100 100 100 100 100 95 100 100 94 100 100 100 100
100 100 100 99 64 99 100 100 78 100 42 82 100 25 56 28 91 58 69 100 95 100 100 100 100 100 100 100 100 100 100 100 100 100 100 99 100 100 100 100 100 100 100 100
99 74 100 93 100 46 94 97 100 89 13 5 20 96 18 20 49 95 100 100 100 100 100 98 91 93 84 99 100 100 100 100 100 100 100 100 99 100 100 100 100 100 100 100
29 96 99 45 34 67 58 62 100 90 11 92 27 35 63 14 97 74 77 100 95 71 68 86 79 48 76 47 100 100 100 100 100 100 100 100 98 100 100 100 100 100 100 100
4 4 5 4 9 100 68 15 93 99 72 5 5 5 84 42 100 100 100 100 100 100 100 100 100 78 100 100 68 100 100 100 100 100 100 100 100 100 100 100 100 100 98 100
16 3 4 15 90 51 100 55 5 19 5 6 5 5 33 26 100 100 100 95 99 96 67 49 88 100 98 100 82 96 100 100 100 100 100 100 100 100 100 100 100 100 100 100
2 0 2 42 6 5 77 27 44 3 4 58 86 20 5 100 100 100 100 100 100 65 47 93 85 62 51 23 7 98 96 100 100 97 100 56 25 94 62 37 100 100 100 100

GFSCGP_prec_cloud_123.txt.gz
Cloud_Cover
2 4 5 5 5 6 100 96 87 88 100 98 100 100 100 100 100 20 23 99 16 1 0 0 0 0 7 5 58 73 100 100 43 7 17 4 0 20 0 0 0 55 1 1
0 5 35 10 5 45 94 94 99 84 100 100 100 100 99 84 98 100 100 100 10 98 0 0 0 0 0 15 29 94 20 79 87 75 5 4 100 100 43 6 0 0 0 3
0 36 99 92 17 59 6 99 100 81 100 100 100 100 100 100 100 100 92 100 80 1 1 0 0 0 0 8 5 78 86 25 91 70 50 4 0 6 74 8 5 5 0 2
0 0 18 69 98 48 65 34 100 86 100 100 100 100 100 100 95 100 98 100 23 10 2 1 0 1 0 1 0 5 98 5 38 100 84 8 5 12 60 96 6 22 4 2
0 0 2 5 84 42 36 100 100 100 100 100 100 100 100 100 95 100 100 100 69 67 73 3 0 0 0 0 4 0 49 77 5 22 100 37 67 5 20 25 100 100 96 22
0 0 0 5 49 86 5 100 100 64 100 100 100 100 100 100 100 71 81 100 34 40 5 64 4 1 16 14 0 0 0 5 63 5 88 100 100 14 6 19 88 98 83 100
0 0 0 0 16 17 2 84 95 91 100 100 100 100 100 100 72 100 100 96 100 96 27 5 3 5 4 13 3 0 0 3 6 35 37 25 33 40 5 5 16 5 58 93
0 0 0 0 0 5 32 40 46 5 100 100 100 100 100 100 100 93 100 100 90 80 8 3 28 43 0 14 4 0 0 0 4 7 6 5 5 10 5 5 5 79 65 63
60 69 2 0 0 0 5 5 61 100 61 100 100 100 100 100 100 78 68 100 20 70 84 5 5 8 81 5 0 4 0 0 0 1 5 62 65 94 6 14 11 98 100 100
73 0 0 0 0 0 0 6 40 38 100 100 100 100 100 100 100 100 15 68 76 84 96 41 6 6 4 10 54 0 0 0 0 0 0 1 83 46 85 42 34 4 82 100
8 30 0 2 2 0 0 0 0 5 98 100 100 100 100 100 100 100 100 98 100 85 20 43 62 46 92 16 54 8 0 1 3 71 100 100 53 30 9 5 3 16 3 90
18 3 1 4 82 11 0 0 4 0 18 91 100 100 100 100 100 94 97 19 45 84 100 100 34 80 100 100 2 97 19 4 92 100 100 100 100 100 100 6 5 3 4 11
21 4 1 18 96 100 16 0 0 0 0 19 100 100 92 99 100 100 100 100 70 97 100 100 100 69 68 60 23 6 82 76 100 100 100 100 100 100 100 100 96 8 12 28
8 27 84 37 29 22 11 6 0 0 0 0 36 100 100 98 100 100 100 100 99 97 94 90 100 8 67 98 100 21 12 100 100 100 100 100 100 100 100 100 100 90 4 32
86 16 100 48 54 5 94 7 52 0 0 0 1 100 100 65 100 100 100 100 97 88 70 84 100 86 100 100 98 100 65 74 100 100 100 100 100 100 100 100 100 100 22 5
100 100 40 46 5 83 100 100 90 0 0 0 0 85 100 100 100 100 100 100 100 100 100 100 100 100 100 100 100 100 100 100 100 100 100 100 100 100 100 100 100 100 100 75
100 53 14 5 6 100 99 87 4 0 0 0 0 2 100 100 100 100 100 100 100 100 100 100 100 98 100 100 100 100 100 100 100 100 100 100 100 100 100 100 100 100 100 100
100 100 88 14 4 74 66 40 5 5 2 2 3 0 97 100 100 100 100 100 100 100 100 100 100 100 100 100 100 100 100 100 100 100 100 100 100 100 100 100 100 100 100 100
6 55 34 5 5 33 83 100 100 22 3 3 49 83 4 11 98 100 100 100 100 100 100 100 100 100 100 100 100 100 100 100 100 100 100 100 100 100 100 100 97 100 100 100
5 9 63 6 9 100 100 100 100 82 10 29 2 90 79 21 14 99 100 100 100 100 100 100 100 100 100 100 100 100 100 100 100 100 100 95 100 100 100 100 100 100 100 100
74 14 33 5 5 77 100 100 91 100 59 5 6 13 95 100 62 54 60 89 100 100 100 100 100 100 100 100 100 100 100 100 100 100 100 100 100 100 99 100 100 94 100 99
43 100 100 92 28 100 100 94 100 100 100 63 91 92 100 100 79 95 98 25 34 100 100 100 100 100 100 100 100 100 100 100 100 100 100 100 100 100 100 100 100 100 100 100
92 91 76 87 100 100 100 100 100 100 100 100 93 68 100 100 100 100 100 100 100 88 100 100 100 100 100 100 100 100 100 100 100 100 100 100 100 100 100 100 100 100 100 100
100 76 19 100 100 100 100 100 100 100 100 91 8 90 44 100 68 96 98 90 100 100 100 100 100 100 100 100 100 100 100 100 100 100 100 100 100 100 100 100 100 100 100 100
100 81 72 100 100 100 100 100 100 100 100 100 29 2 26 94 97 10 72 95 100 100 97 91 100 100 100 100 100 100 100 100 100 100 100 100 100 100 100 100 100 100 100 100
100 59 97 99 88 100 100 100 100 100 100 100 90 21 98 5 27 78 98 92 100 100 100 100 54 94 100 100 98 100 30 100 100 100 100 100 100 100 100 100 100 100 100 100